Station: Tasman Island  

  Atmospheric Gas Attenuation - ITU Rec 676-11   ----------------- dB/100km -----------------
Date Time Temp RH % AH g/m3 Dew Point Wind Direction Speed kph Gust kph Barometer mB Rainfall Since 9am 24GHz 47GHz 76GHz 122GHz 134GHz 241GHz
06/09 14:20 14.1 70 8.5 8.7 6 9 1015.9 0 19.4 25.7 39.4 103.3 96.9 333.3
06/09 14:10 13.9 68 8.15 8.1 6 9 1015.9 0 18.6 25.2 38.1 99.8 92.6 318.1
06/09 14:00 13.5 72 8.42 8.6 6 9 1015.9 0 19.2 25.8 39.3 103.2 96.6 332.2
06/09 13:50 13.5 75 8.77 9.2 7 11 1015.9 0 20.0 26.4 40.8 107.0 101.3 348.5
06/09 13:40 13.1 76 8.67 9 7 13 1015.9 0 19.8 26.3 40.6 106.4 100.4 345.5
06/09 13:30 13.1 79 9.02 9.5 6 11 1016 0 20.5 26.9 42.0 110.3 105.2 362.1
06/09 13:20 13.1 81 9.24 9.9 4 11 1016 0 21.0 27.3 42.9 112.7 108.2 372.6
06/09 13:10 13.1 84 9.59 10.5 7 13 1016.1 0 21.7 27.9 44.4 116.6 113.0 389.4
06/09 13:00 13.2 85 9.76 10.7 6 11 1016.1 0 22.1 28.1 45.0 118.4 115.2 397.2
06/09 12:50 13 85 9.64 10.5 6 11 1016.2 0 21.9 28.0 44.6 117.3 113.8 392.4
06/09 12:40 13.3 85 9.82 10.8 6 13 1016.3 0 22.2 28.2 45.2 118.9 115.9 399.7
06/09 12:30 13 84 9.53 10.4 6 15 1016.3 0 21.6 27.8 44.2 116.1 112.3 387.1
06/09 12:20 13.2 84 9.65 10.6 6 13 1016.3 0 21.9 27.9 44.6 117.2 113.7 391.9
06/09 12:10 13 84 9.53 10.4 4 11 1016.3 0 21.6 27.8 44.2 116.1 112.3 387.1
06/09 12:00 12.7 84 9.35 10.1 9 17 1016.3 0 21.2 27.6 43.6 114.5 110.3 379.9
06/09 11:50 13 85 9.64 10.5 9 19 1016.4 0 21.9 28.0 44.7 117.4 113.9 392.5
06/09 11:40 12.9 83 9.36 10.1 6 17 1016.5 0 21.3 27.5 43.5 114.4 110.1 379.4
06/09 11:30 12.7 83 9.24 9.9 6 13 1016.5 0 21.0 27.4 43.1 113.3 108.8 374.6
06/09 11:20 12.7 85 9.46 10.2 4 15 1016.6 0 21.5 27.8 44.1 115.8 111.8 385.3
06/09 11:10 12.7 85 9.46 10.2 6 15 1016.5 0 21.5 27.8 44.1 115.8 111.8 385.3
06/09 11:00 12.9 84 9.47 10.3 4 13 1016.3 0 21.5 27.7 44.0 115.6 111.6 384.7
06/09 10:50 13 85 9.64 10.5 6 15 1016.2 0 21.9 28.0 44.6 117.3 113.8 392.4
06/09 10:40 12.7 86 9.57 10.4 6 13 1016.1 0 21.7 27.9 44.5 117.0 113.3 390.5
06/09 10:30 12.7 87 9.69 10.6 4 15 1015.9 0 22.0 28.1 45.0 118.3 115.0 396.3
06/09 10:20 12.3 87 9.45 10.2 4 17 1016 0 21.5 27.9 44.2 116.2 112.2 386.6
06/09 10:10 12.3 88 9.56 10.4 6 19 1016 0 21.7 28.1 44.7 117.5 113.8 392.0
06/09 10:00 12.1 86 9.22 9.8 2 9 1015.9 0 21.0 27.5 43.4 113.9 109.3 376.4
06/09 09:50 12.1 86 9.22 9.8 4 17 1015.9 0 21.0 27.5 43.4 113.9 109.3 376.4
06/09 09:40 12.4 89 9.73 10.6 4 9 1015.8 0 22.1 28.3 45.4 119.2 116.0 399.7
06/09 09:30 11.6 89 9.25 9.9 6 13 1015.8 0 21.1 27.7 43.8 115.0 110.4 380.3
06/09 09:20 11.4 92 9.44 10.1 6 15 1015.7 0 21.5 28.1 44.7 117.4 113.4 390.5
06/09 09:10 11.2 92 9.33 10 6 13 1015.6 0 21.3 28.0 44.3 116.5 112.1 386.1
06/09 09:00 11.4 92 9.44 10.1 6 17 1015.4 0 21.5 28.1 44.7 117.4 113.4 390.5
06/09 08:50 10.9 91 9.05 9.5 6 17 1015.4 9.4 20.7 27.6 43.3 113.7 108.6 373.8
06/09 08:40 11.6 90 9.36 10 6 13 1015.3 9.4 21.3 27.9 44.2 116.2 111.9 385.5
06/09 08:30 11.6 87 9.04 9.5 6 17 1015.2 9.4 20.6 27.4 42.8 112.5 107.5 369.9
06/09 08:20 11.3 86 8.77 9 9 19 1015.1 9.4 20.1 27.0 41.9 109.9 104.1 358.2
06/09 08:10 11.3 87 8.88 9.2 9 17 1015.1 9.4 20.3 27.2 42.3 111.2 105.6 363.5
06/09 08:00 11.4 87 8.93 9.3 11 20 1014.9 9.4 20.4 27.2 42.5 111.6 106.2 365.4
06/09 07:50 10.8 87 8.6 8.7 13 19 1014.7 9.4 19.7 26.8 41.4 108.7 102.4 352.2
06/09 07:40 10.5 86 8.34 8.3 13 19 1014.5 9.4 19.2 26.5 40.5 106.2 99.2 340.9
06/09 07:30 10.2 86 8.19 8 9 17 1014.4 9.4 18.9 26.3 40.0 104.9 97.5 335.0
06/09 07:20 9.8 87 8.07 7.7 9 17 1014.2 9.4 18.6 26.2 39.7 104.1 96.4 330.9
06/09 07:10 9.6 88 8.06 7.7 9 15 1014 9.4 18.6 26.3 39.7 104.2 96.5 331.2
06/09 07:00 9.4 88 7.96 7.5 13 19 1013.7 9.4 18.4 26.1 39.4 103.3 95.3 327.2
06/09 06:50 9.6 88 8.06 7.7 11 19 1013.4 9.4 18.6 26.2 39.7 104.2 96.4 331.1
06/09 06:40 9.6 87 7.97 7.5 11 17 1013.1 9.4 18.4 26.1 39.3 103.1 95.2 326.7
06/09 06:30 9.4 87 7.87 7.3 7 17 1012.9 9.4 18.2 26.0 39.0 102.3 94.0 322.7
06/09 06:20 9.4 86 7.78 7.2 9 15 1012.7 9.4 18.0 25.8 38.6 101.2 92.8 318.3
06/09 06:10 9.2 85 7.59 6.8 11 15 1012.5 9.4 17.6 25.5 37.9 99.4 90.4 310.0
06/09 06:00 9.1 86 7.63 6.9 9 13 1012.4 9.4 17.7 25.6 38.1 99.9 91.1 312.3
06/09 05:50 9.2 86 7.68 7 9 13 1012.3 9.4 17.8 25.7 38.3 100.4 91.7 314.3
06/09 05:40 9.2 86 7.68 7 7 13 1012.2 9.4 17.8 25.7 38.3 100.4 91.6 314.2
06/09 05:30 9.2 85 7.59 6.8 7 15 1012.2 9.4 17.6 25.5 37.9 99.4 90.4 310.0
06/09 05:20 9.6 85 7.79 7.2 7 17 1012 9.4 18.1 25.7 38.5 101.0 92.6 317.8
06/09 05:10 9.8 84 7.8 7.2 9 19 1011.8 9.4 18.1 25.7 38.5 100.9 92.5 317.4
06/09 05:00 10.1 84 7.95 7.5 9 19 1011.6 9.4 18.4 25.8 38.9 102.1 94.2 323.2
06/09 04:50 10.1 84 7.95 7.5 11 20 1011.4 9.4 18.4 25.8 38.9 102.1 94.2 323.2
06/09 04:40 9.9 83 7.75 7.2 11 19 1011.2 9.4 18.0 25.6 38.2 100.1 91.7 314.5
06/09 04:30 9.8 83 7.7 7.1 11 20 1011 9.4 17.8 25.5 38.0 99.7 91.1 312.5
06/09 04:20 9.8 82 7.61 6.9 13 20 1010.8 9.4 17.7 25.3 37.6 98.7 89.9 308.2
06/09 04:10 9.8 82 7.61 6.9 15 22 1010.6 9.4 17.7 25.3 37.6 98.7 89.9 308.1
06/09 04:00 9.8 83 7.7 7.1 15 24 1010.3 9.4 17.8 25.5 38.0 99.6 91.1 312.3
06/09 03:50 10 85 7.99 7.6 15 22 1010 9.4 18.5 25.9 39.1 102.5 94.7 325.1
06/09 03:40 9.8 84 7.8 7.2 15 22 1009.9 9.4 18.1 25.6 38.4 100.7 92.4 316.9
06/09 03:30 10 87 8.18 7.9 15 22 1009.6 9.4 18.9 26.2 39.8 104.6 97.3 334.1
06/09 03:20 9.9 88 8.22 8 13 22 1009.3 9.4 19.0 26.3 40.0 105.1 97.9 336.3
06/09 03:10 10.1 89 8.42 8.4 15 22 1009.1 9.4 19.4 26.5 40.8 107.0 100.4 345.0
06/09 03:00 10.3 89 8.53 8.6 15 26 1008.9 9.4 19.6 26.7 41.1 108.0 101.6 349.4
06/09 02:50 10.3 90 8.62 8.7 13 22 1008.5 9.4 19.8 26.8 41.5 108.9 102.8 353.6
06/09 02:40 10.2 90 8.57 8.6 15 26 1008.3 9.4 19.7 26.7 41.3 108.5 102.3 351.6
06/09 02:30 10.3 90 8.62 8.7 15 26 1008.1 9.4 19.8 26.8 41.4 108.9 102.8 353.5
06/09 02:20 10.3 91 8.72 8.9 11 22 1007.9 9.4 20.0 26.9 41.9 110.0 104.2 358.3
06/09 02:10 10.4 91 8.77 9 13 24 1007.7 9.4 20.1 27.0 42.0 110.4 104.7 360.2
06/09 02:00 10.3 90 8.62 8.7 15 28 1007.5 9.4 19.8 26.7 41.4 108.8 102.8 353.3
06/09 01:50 10.4 91 8.77 9 15 24 1007.2 9.4 20.1 27.0 42.0 110.3 104.7 360.0
06/09 01:40 10.2 91 8.66 8.8 15 26 1007 9.4 19.9 26.8 41.6 109.4 103.4 355.6
06/09 01:30 10.2 91 8.66 8.8 17 24 1006.8 9.4 19.9 26.8 41.6 109.3 103.4 355.5
06/09 01:20 10.3 91 8.72 8.9 19 30 1006.6 9.4 20.0 26.9 41.8 109.8 104.1 357.9
06/09 01:10 10.3 92 8.81 9.1 19 30 1006.4 9.4 20.2 27.0 42.2 110.8 105.3 362.2
06/09 01:00 10.3 93 8.91 9.2 17 28 1005.9 9.4 20.4 27.2 42.6 111.9 106.6 367.0
06/09 00:50 10.3 94 9 9.4 19 32 1005.5 9.4 20.6 27.3 42.9 112.9 107.9 371.2
06/09 00:40 10.3 96 9.2 9.7 19 30 1005.2 9.4 21.1 27.6 43.8 115.1 110.7 381.0
06/09 00:30 10.3 97 9.29 9.8 20 32 1004.9 9.4 21.3 27.8 44.1 116.1 111.9 385.3
06/09 00:20 10.3 97 9.29 9.8 20 33 1004.6 9.4 21.3 27.8 44.1 116.1 111.9 385.2
06/09 00:10 10.3 98 9.39 10 17 26 1004.5 9.4 21.5 28.0 44.6 117.2 113.3 390.1
06/09 00:00 10.3 98 9.39 10 19 32 1004.3 9.4 21.5 27.9 44.5 117.2 113.3 390.1
05/09 23:50 10.4 98 9.45 10.1 22 37 1003.9 9.4 21.6 28.0 44.7 117.7 113.9 392.4
05/09 23:40 10.5 98 9.51 10.2 22 37 1003.6 9.4 21.7 28.1 44.9 118.2 114.6 394.8
05/09 23:30 10.5 98 9.51 10.2 19 32 1003.2 9.4 21.7 28.0 44.9 118.2 114.6 394.7
05/09 23:20 10.3 98 9.39 10 22 37 1002.8 9.4 21.5 27.9 44.5 117.0 113.1 389.6
05/09 23:10 10.5 98 9.51 10.2 24 39 1002.4 9.4 21.7 28.0 44.9 118.1 114.5 394.4
05/09 23:00 10.6 98 9.57 10.3 22 37 1002.2 9.4 21.9 28.1 45.1 118.6 115.2 396.8
05/09 22:50 10.4 98 9.45 10.1 24 35 1002 9.4 21.6 27.9 44.6 117.5 113.7 391.8
05/09 22:40 10.5 98 9.51 10.2 19 37 1001.6 9.4 21.7 28.0 44.8 118.0 114.4 394.2
05/09 22:30 10.6 98 9.57 10.3 20 35 1001.5 9.2 21.9 28.0 45.0 118.5 115.1 396.6
05/09 22:20 10.5 98 9.51 10.2 15 24 1001.2 9.2 21.7 28.0 44.8 117.9 114.4 394.0
05/09 22:10 10.7 98 9.63 10.4 17 30 1000.9 9.2 22.0 28.1 45.2 119.0 115.7 398.9
05/09 22:00 10.7 98 9.63 10.4 15 24 1000.8 9.2 22.0 28.1 45.2 119.0 115.7 398.8
05/09 21:50 10.6 98 9.57 10.3 13 28 1000.6 9 21.9 28.0 45.0 118.4 115.0 396.3

Last Refresh: 06-Sep-2026 14:01:13

Bureau of Meteorology